Location: Buchloe
(48.0161°N, 10.7316°E)
Time: 04:15:39
(UTC+01:00)

ISS - Visible Passes

Search period start: 11 December 2018 00:00
Search period end: 21 December 2018 00:00
Orbit: 401 x 408 km, 51.6° (Epoch: 12 December)

Date Brightness Start Highest point End Pass type
(mag) Time Alt. Az. Time Alt. Az. Time Alt. Az.
11 Dec -2.0 18:14:18 10° W 18:17:12 29° SW 18:19:44 12° SSE visible
12 Dec -2.8 17:21:56 10° WNW 17:25:06 48° SSW 17:28:16 10° SE visible
13 Dec -0.8 18:07:00 10° W 18:08:59 15° SW 18:10:57 10° S visible
14 Dec -1.3 17:14:13 10° W 17:16:58 25° SW 17:19:41 10° SSE visible
16 Dec -0.3 17:07:09 10° WSW 17:08:38 13° SW 17:10:07 10° SSW visible
